Wind_Speed
46 45 42 41 42 43 44 42 41 42 41 40 39 35 31 31 35 37 37 36 34 32 30 30 30 29 27 26 26 25 25 25 25 26 27 28 28 28 28 28 27 24 22 21 21 20 21 22 21 22 23 24 24 23 22 21 22 20 15 13 14 14 13 11 12 14 12 10 8 9 12 14 14 14 14 15 16 15 14 12 11 11 10 9 10
45 43 41 40 41 43 45 45 43 42 41 40 40 36 31 30 33 35 36 36 35 32 30 31 31 29 27 26 26 25 25 26 26 27 28 29 29 29 29 28 27 25 23 23 22 21 21 21 20 21 23 24 23 23 22 22 20 18 17 16 14 14 14 12 12 13 13 11 9 11 14 15 15 14 15 15 15 14 13 12 11 10 9 10 10
46 44 42 41 40 42 45 47 45 44 41 40 41 39 36 35 35 35 34 33 34 32 31 31 31 28 26 26 26 26 26 26 27 28 28 29 29 29 29 29 28 26 24 23 22 21 21 19 19 21 22 23 23 23 23 20 17 15 17 16 15 16 15 14 14 14 13 11 10 13 16 17 16 15 14 15 15 14 13 11 10 10 10 11 11
48 47 45 44 43 42 45 47 47 45 41 40 40 39 38 38 37 35 33 32 33 33 33 32 31 28 26 26 26 26 26 26 27 28 28 29 29 29 29 29 28 26 25 23 22 22 21 19 20 21 22 22 23 24 22 17 14 14 15 13 12 13 14 16 17 15 13 10 10 14 17 17 16 15 15 16 16 15 14 13 12 12 12 12 12
48 49 48 47 45 44 46 47 48 47 42 40 41 39 37 38 37 35 34 33 33 34 34 34 32 28 26 26 25 25 26 27 28 28 28 28 29 30 30 29 28 26 25 23 22 22 21 20 21 22 23 23 23 23 19 15 12 12 13 11 10 11 15 19 19 17 15 11 10 13 17 18 17 16 17 17 17 16 16 15 15 14 14 14 14
47 48 48 46 44 45 46 48 49 48 42 41 43 40 37 37 36 35 34 34 33 34 34 35 34 29 25 26 30 31 28 28 28 28 27 28 28 30 30 29 28 27 25 24 23 22 21 20 21 22 23 23 23 22 17 13 11 11 11 10 11 14 16 20 20 18 16 14 12 12 16 19 18 17 17 17 17 16 16 16 16 17 17 17 17
46 47 47 44 42 44 47 50 50 47 42 42 43 42 40 40 38 35 35 35 34 33 34 36 36 32 28 30 39 41 35 31 31 29 27 27 28 28 29 29 28 27 26 24 23 22 21 21 21 22 23 22 21 19 15 11 11 10 11 10 13 16 18 20 20 20 19 17 15 13 14 17 18 18 17 17 17 17 17 18 18 18 18 17 17
46 46 46 43 41 43 46 49 48 45 42 43 44 43 43 43 40 37 36 34 32 32 32 33 33 30 29 33 38 40 36 34 34 31 29 27 26 26 27 28 28 28 27 25 23 22 21 21 21 22 22 22 20 17 14 11 11 11 11 11 15 18 19 20 20 21 21 20 19 16 15 16 17 17 17 18 18 17 17 17 16 16 16 16 16
46 46 45 44 43 42 43 46 47 45 44 44 43 42 41 41 39 38 36 33 31 30 29 29 28 27 27 30 32 34 35 36 35 32 30 27 25 25 26 27 28 28 27 26 23 22 21 20 21 21 21 20 18 16 14 12 11 11 11 12 14 17 19 21 21 22 23 23 22 20 19 18 19 18 18 18 16 14 14 14 14 14 15 17 17
45 45 45 44 44 44 44 45 46 46 45 44 42 40 39 39 39 38 36 34 33 31 29 29 29 27 26 27 29 31 34 36 35 33 31 27 23 24 25 26 28 28 27 26 23 21 21 20 21 21 21 19 17 16 15 13 12 11 12 14 14 15 17 20 21 22 23 24 24 23 22 22 21 20 18 16 15 15 15 16 16 16 17 19 19
45 45 45 44 46 47 47 47 46 45 44 43 41 39 38 39 40 37 36 35 34 32 31 31 29 27 26 27 27 29 31 33 33 32 30 25 22 22 23 24 26 26 25 24 22 21 20 20 21 21 20 19 18 17 17 15 13 12 13 15 15 15 16 18 20 21 23 23 24 23 23 23 21 20 19 17 17 17 17 17 18 19 19 20 20
45 46 45 45 47 47 45 45 43 40 40 40 40 39 38 39 40 38 36 35 32 31 31 31 29 28 27 27 28 28 29 31 31 30 28 25 22 21 21 23 24 25 23 22 21 21 20 21 21 21 20 18 18 19 18 17 14 13 14 16 16 16 17 18 19 21 22 22 23 23 23 22 20 20 19 18 17 18 18 19 19 20 20 21 19
46 48 47 47 48 48 46 44 41 37 35 33 34 36 38 40 41 39 36 33 30 29 29 28 28 28 28 28 28 27 27 29 29 29 29 26 23 22 21 22 23 24 22 21 21 21 21 21 21 21 19 18 19 20 20 18 17 15 16 17 18 18 18 19 20 21 22 22 23 23 22 21 20 19 17 16 17 19 20 20 19 19 20 20 17
44 47 48 47 47 47 47 46 44 41 36 31 30 33 37 41 42 40 37 33 31 29 27 26 26 26 27 27 26 25 26 28 29 30 29 27 25 24 23 22 23 24 23 21 21 22 21 21 22 20 19 18 20 21 22 21 19 18 18 19 19 20 20 20 21 22 23 24 24 24 22 21 20 18 15 16 18 19 19 19 18 18 17 17 16
41 45 46 46 45 44 44 43 44 46 44 40 37 36 39 41 40 38 36 34 32 29 25 23 23 24 24 24 23 23 24 25 28 29 28 26 25 25 25 25 24 24 23 22 22 22 21 22 22 20 18 19 20 21 22 22 21 21 21 20 20 21 21 22 22 23 24 24 24 24 23 22 21 18 17 17 18 18 18 17 17 17 17 18 18
39 44 45 45 45 44 42 39 39 41 41 39 37 39 42 42 37 35 35 32 29 26 22 20 20 21 22 23 22 22 22 23 25 26 25 26 26 26 28 30 28 25 24 23 23 22 22 22 22 21 19 19 20 21 22 23 23 22 22 21 21 22 23 23 23 24 25 25 25 25 25 24 22 21 20 19 18 18 19 18 19 19 20 21 21
35 41 45 46 44 42 41 38 36 36 35 33 34 38 42 42 37 34 34 31 28 24 21 19 18 19 21 22 22 21 20 21 23 23 24 26 27 28 31 33 29 27 27 25 23 24 23 22 22 22 21 20 21 22 23 24 24 24 23 22 22 23 23 23 24 25 26 27 27 27 27 26 25 23 22 20 19 20 21 22 22 22 22 23 23
32 38 42 44 41 38 39 40 39 38 37 35 34 36 40 42 38 34 32 29 26 24 21 20 19 19 21 23 23 22 20 20 21 23 24 25 26 29 33 31 28 28 29 29 27 25 24 23 23 22 22 20 21 22 24 25 26 26 25 24 24 25 24 24 24 25 26 27 28 28 28 28 26 24 23 21 21 23 24 25 23 22 23 24 24
32 36 38 39 37 35 36 40 42 42 40 36 35 36 40 41 37 32 29 25 23 22 21 20 20 20 22 24 25 24 23 22 22 23 25 25 26 29 31 28 27 29 31 30 29 28 26 25 23 22 22 21 21 21 23 24 25 26 25 26 27 27 24 23 23 23 24 25 26 26 26 25 24 23 22 21 22 24 26 25 24 23 23 23 23
32 34 35 36 35 33 34 38 41 41 40 37 36 38 40 38 34 30 26 24 22 22 21 21 21 22 23 25 26 26 25 24 24 24 26 26 27 29 28 26 27 31 31 29 30 32 30 25 22 22 23 23 22 21 21 22 23 23 24 26 28 27 24 22 22 22 23 24 24 25 25 24 23 22 21 21 22 24 25 25 25 25 24 23 23
33 32 33 34 33 32 34 37 40 41 40 38 38 38 37 34 30 27 24 22 21 22 22 22 22 23 24 26 27 26 25 25 25 26 26 27 28 29 29 27 27 30 31 30 30 32 31 27 24 23 23 24 24 23 22 22 21 22 23 25 26 26 24 23 23 23 24 25 25 25 25 24 23 23 22 22 22 22 23 24 25 24 24 24 25
36 33 34 34 32 30 32 35 38 40 39 37 36 35 32 28 25 24 22 22 22 22 22 23 23 24 25 26 27 27 26 27 28 27 28 29 30 30 29 28 27 29 31 31 31 32 32 29 27 24 23 24 25 24 23 23 23 23 23 22 22 24 25 25 25 25 26 27 28 27 26 25 24 23 22 22 22 22 22 22 22 22 22 23 24
38 35 35 35 34 31 31 31 33 35 35 34 32 30 27 25 23 22 21 21 21 21 22 22 23 23 24 26 27 27 28 29 30 29 29 31 31 31 30 28 28 29 30 31 33 33 32 29 25 23 23 24 24 23 23 23 24 24 22 20 22 25 26 27 27 28 28 29 29 29 27 25 24 23 23 22 21 21 22 22 21 21 21 22 24
38 36 35 35 35 34 32 31 31 31 30 29 27 25 24 23 22 21 20 21 21 20 20 20 21 22 24 25 27 27 28 29 30 30 30 31 32 32 31 29 29 30 31 31 32 33 34 31 25 23 23 23 23 23 24 24 25 24 22 21 22 25 28 30 29 29 29 30 30 29 28 26 24 23 22 21 20 21 22 22 22 22 22 22 23
37 35 34 34 34 32 31 30 30 29 27 26 25 24 23 22 21 21 21 21 20 20 19 19 19 21 23 26 28 29 30 29 29 29 29 31 32 33 32 30 29 30 32 32 32 33 33 32 29 26 24 22 22 23 25 26 26 25 22 22 25 28 30 31 30 30 31 31 30 29 27 24 23 21 20 20 20 21 21 22 22 23 23 24 25
34 34 33 33 32 30 30 29 27 25 24 22 22 21 20 20 19 19 19 18 18 18 18 18 19 21 23 26 29 32 32 31 30 30 29 30 32 32 32 31 30 31 33 33 33 34 34 35 36 32 25 22 23 24 25 27 27 26 25 26 28 30 31 31 31 31 31 30 28 26 24 22 21 20 20 20 20 20 21 21 22 23 24 24 25
31 31 32 32 31 30 29 27 26 24 23 22 20 19 18 18 18 17 17 16 16 15 15 16 18 20 23 26 29 32 34 34 33 33 32 33 33 33 33 32 31 32 34 34 34 36 37 39 41 35 27 26 28 27 26 27 27 27 28 29 30 31 31 32 32 31 29 28 26 24 22 21 21 21 20 20 20 21 21 21 22 23 23 23 24
29 30 30 30 30 29 29 28 27 26 24 23 23 22 21 20 20 19 18 17 17 16 16 17 18 19 22 25 27 32 35 36 36 36 35 34 34 33 34 34 33 34 35 34 35 37 39 43 45 39 32 30 32 31 30 30 30 30 31 31 32 33 32 32 32 31 29 28 26 24 23 22 21 21 20 21 21 21 21 21 22 23 23 22 23
27 28 28 29 29 30 29 28 27 26 26 25 25 24 24 23 23 22 20 19 18 18 17 18 19 21 22 23 26 30 35 36 37 37 35 33 33 34 35 35 35 35 35 35 36 37 38 43 47 43 36 32 33 34 35 35 35 34 33 34 34 34 33 33 33 32 31 29 28 27 26 24 23 22 22 22 22 21 21 21 21 22 23 23 24
24 25 26 28 30 31 30 29 29 28 27 27 27 26 26 25 25 24 23 21 20 19 19 20 21 22 24 25 26 30 33 33 32 32 32 31 32 34 34 33 33 33 34 37 41 41 38 40 44 43 39 37 37 37 37 38 39 38 36 36 37 37 36 35 34 32 31 30 30 28 27 25 25 24 24 23 22 22 21 21 21 22 23 24 25
21 23 24 26 27 29 29 29 29 29 29 30 29 29 28 27 26 26 25 24 23 23 24 24 24 25 27 27 28 30 31 31 30 30 30 31 32 34 34 33 32 31 33 38 44 44 41 41 42 42 42 41 40 39 38 40 42 41 38 38 39 39 38 37 35 33 32 32 31 29 28 27 26 26 26 25 23 23 22 21 21 22 24 25 25
20 21 23 24 24 25 26 27 28 28 29 29 30 29 29 27 26 25 25 26 26 27 28 27 27 28 28 28 29 30 31 30 30 29 30 31 32 34 34 33 32 31 32 37 42 43 42 43 42 43 44 45 43 41 40 41 44 43 40 38 40 41 40 38 36 34 33 33 32 31 29 27 26 27 27 26 25 25 24 23 23 23 23 24 25
23 24 24 25 25 25 26 26 26 27 27 27 28 28 28 28 28 27 27 28 28 29 30 29 28 29 29 29 31 31 31 31 30 28 29 30 31 33 34 34 34 32 32 36 39 41 42 43 42 42 45 47 45 44 43 43 44 45 42 39 39 40 39 37 36 35 35 35 33 30 28 26 26 26 27 27 27 27 26 25 24 23 23 24 24
25 26 26 27 27 27 28 28 28 28 28 28 28 28 29 29 29 29 30 30 31 31 32 32 31 30 30 31 31 31 30 30 29 28 28 29 29 33 36 36 34 33 33 35 39 40 41 43 43 43 45 47 47 46 45 44 45 46 43 39 37 38 38 37 37 36 36 35 33 30 27 26 25 26 27 28 29 29 28 26 25 24 24 24 23
26 26 27 27 28 29 29 30 31 32 33 33 34 34 34 33 33 33 33 34 34 34 35 36 34 31 30 30 30 30 30 28 26 26 27 28 30 34 36 35 35 35 36 38 41 42 43 43 44 44 44 46 46 47 47 45 45 46 44 39 37 38 39 38 38 37 36 35 33 30 27 26 26 26 27 29 31 31 30 28 26 25 24 23 23
27 27 28 28 29 30 31 32 33 34 35 36 37 37 37 37 37 38 37 37 37 37 37 37 34 31 30 29 30 31 29 26 24 24 25 28 33 36 37 36 37 39 39 40 41 43 44 45 45 44 44 45 46 48 48 46 45 46 45 40 36 36 38 39 38 38 37 36 34 31 29 28 27 26 27 29 31 32 31 28 26 25 23 22 22
30 31 32 32 32 32 33 33 34 34 35 36 37 37 38 38 38 39 39 39 39 39 39 37 34 33 31 30 31 31 28 24 22 22 24 28 34 38 38 38 39 41 41 41 42 44 44 43 43 43 43 45 45 46 48 47 46 46 46 40 35 35 37 38 39 38 37 35 34 32 30 29 28 27 27 29 32 33 32 29 27 25 22 21 21
27 28 30 31 32 32 31 32 33 33 33 35 36 37 37 37 37 38 38 38 38 39 39 38 35 32 30 31 31 29 25 23 22 23 26 30 34 38 39 38 37 40 41 41 42 44 43 41 41 41 42 42 42 43 45 46 46 47 46 41 36 35 37 38 39 38 36 35 34 32 31 30 29 27 27 29 31 33 32 30 28 26 24 22 22
18 21 23 24 27 28 28 29 30 31 32 33 34 35 36 36 36 37 37 37 37 37 36 35 33 30 28 28 27 24 22 22 22 22 25 29 32 36 39 37 36 38 39 39 40 42 43 42 41 42 42 41 41 41 43 44 45 47 46 41 36 36 38 40 40 39 37 36 35 33 32 32 30 28 28 29 31 32 32 31 29 28 26 25 23
6 12 16 18 21 23 24 26 28 29 29 30 30 31 32 32 32 32 31 30 30 29 28 28 28 27 24 23 22 21 21 21 21 21 23 26 28 32 35 35 34 34 35 36 38 40 41 41 42 43 42 42 41 40 40 41 44 46 45 41 38 38 39 40 41 40 37 36 35 34 33 32 30 29 29 29 29 29 31 31 30 29 27 25 23
20 13 8 8 10 13 15 18 21 24 26 26 26 26 25 25 24 24 23 23 23 22 22 23 24 23 21 21 21 21 21 21 21 21 22 24 27 29 31 32 31 33 35 38 40 40 38 39 41 43 43 42 41 40 40 41 42 43 44 43 41 39 39 41 42 41 39 37 36 34 33 30 28 27 27 25 24 25 27 28 29 28 27 25 23
32 29 24 19 15 13 13 12 10 11 15 17 18 18 17 17 16 15 15 15 15 15 15 15 15 16 17 18 19 19 19 21 22 23 23 25 27 30 32 33 33 35 38 41 42 40 39 40 41 42 42 42 42 43 43 43 41 40 42 45 44 42 41 42 43 43 41 38 35 33 31 29 26 24 22 20 20 21 23 24 25 25 25 23 23
38 37 37 34 29 26 24 23 23 21 18 16 14 13 12 12 11 10 9 8 7 7 7 7 7 8 9 10 11 12 13 15 17 18 19 20 21 23 27 30 32 34 38 40 41 39 39 40 41 40 39 39 40 42 44 44 42 40 42 45 46 45 44 44 45 45 42 37 35 33 30 26 23 21 19 17 17 18 19 20 21 21 21 21 21
38 39 40 40 38 35 33 32 31 30 29 26 24 21 18 16 14 12 10 9 8 6 5 4 2 0 1 3 4 5 6 7 8 9 10 12 13 15 18 21 24 27 32 35 38 39 39 39 39 38 37 37 39 41 43 42 42 41 42 43 45 46 46 46 46 45 40 36 35 33 28 23 21 19 18 18 18 18 18 19 19 19 19 19 20
38 38 39 38 38 38 37 36 35 33 32 32 31 29 27 24 21 19 16 15 14 14 13 12 10 8 6 4 3 2 1 2 3 4 6 8 9 11 12 13 16 19 22 24 28 33 36 37 37 36 35 36 38 40 40 40 40 41 41 41 42 42 41 40 39 36 35 35 33 28 25 22 20 19 19 20 20 20 20 20 19 19 19 19 20
38 38 38 38 37 37 36 36 35 34 33 34 35 34 32 30 28 25 23 22 21 21 20 19 18 15 13 10 8 5 3 1 1 3 4 6 7 7 8 10 12 14 15 16 18 21 25 28 29 29 29 30 31 32 32 32 32 32 34 35 36 35 35 34 30 28 30 32 29 26 25 23 22 21 22 22 22 22 22 22 20 19 19 19 20
38 38 37 37 37 36 36 35 35 34 34 34 34 34 33 32 31 29 28 27 27 26 25 25 23 22 19 16 13 11 9 6 4 2 1 1 3 5 6 8 9 10 12 13 14 15 16 17 18 19 20 20 21 22 22 22 22 23 24 26 27 28 29 28 24 24 27 29 28 27 27 26 24 24 24 23 22 23 24 23 21 20 20 20 21
37 38 37 37 37 37 37 36 35 35 34 34 33 33 32 31 31 30 29 27 26 26 25 25 24 23 22 20 19 18 16 14 11 8 5 3 2 2 3 3 4 5 7 8 8 8 8 9 10 12 13 13 14 14 14 14 15 15 15 16 18 20 22 23 23 24 25 27 27 27 27 26 25 25 25 23 22 23 22 21 20 21 21 22 23
35 36 37 37 37 38 37 37 36 36 35 34 33 33 32 31 30 29 28 26 25 24 24 23 22 22 21 21 20 20 20 19 18 15 11 9 9 10 11 10 7 5 4 4 3 2 2 4 5 7 7 7 7 7 7 7 7 8 8 10 13 15 18 21 22 23 25 25 24 24 25 26 27 27 25 22 21 21 21 21 21 22 22 23 24
33 34 34 35 35 36 36 36 35 35 34 34 33 33 32 31 30 29 27 26 24 23 23 22 21 20 20 19 19 20 20 20 20 19 17 16 16 17 16 13 11 10 9 8 7 6 6 5 5 5 4 3 2 2 1 1 2 4 5 7 9 12 15 17 19 22 22 21 19 21 23 25 25 24 22 20 20 21 22 22 23 23 23 23 23
30 30 31 32 32 33 34 34 34 34 33 33 33 32 32 31 30 29 28 27 26 25 24 23 21 20 19 18 18 18 19 18 18 18 17 17 16 15 14 13 12 11 11 10 11 11 11 11 11 11 10 9 9 8 8 7 6 4 4 5 7 9 12 14 16 18 18 18 19 20 22 22 22 21 19 18 19 20 21 23 23 23 23 22 22
Wind_Direction
234 234 233 233 234 232 231 234 237 238 241 243 243 242 243 246 246 244 242 239 235 232 229 227 226 226 228 230 229 231 233 235 238 238 237 236 235 237 240 242 246 249 253 257 261 266 272 277 286 294 298 299 299 298 296 293 290 290 282 269 268 259 244 243 251 251 243 235 235 224 213 212 213 210 207 207 211 211 206 207 216 228 243 257 270
235 235 235 235 236 235 232 234 238 240 241 243 242 236 231 234 241 243 241 240 239 235 231 229 227 225 227 229 231 232 234 237 240 241 239 237 235 237 239 241 244 247 250 255 258 264 270 278 288 295 296 296 296 295 295 293 289 283 274 265 255 245 243 246 244 237 226 224 231 215 200 201 208 207 203 204 209 212 211 214 221 231 245 255 264
239 238 237 238 239 238 234 232 237 241 241 240 240 237 232 233 238 241 239 238 237 232 229 230 228 226 228 231 233 234 235 237 240 243 242 240 238 238 239 241 244 246 250 254 259 265 272 280 289 293 293 293 294 295 295 291 285 279 277 269 249 240 241 235 226 218 211 217 226 212 200 199 203 204 203 206 210 214 216 220 228 237 246 254 261
240 240 239 240 240 238 235 232 234 239 240 239 238 238 238 238 239 239 238 237 235 230 228 230 229 228 232 235 237 239 241 241 242 244 245 243 242 241 241 243 244 247 250 254 260 268 274 283 288 289 290 290 292 296 294 288 280 278 280 269 241 233 225 212 208 203 201 215 223 209 202 203 206 203 204 208 211 214 218 222 229 237 244 251 257
239 240 240 240 240 237 235 232 233 236 236 236 237 236 238 241 241 240 240 240 238 234 231 230 228 229 236 241 242 242 244 246 245 246 248 247 245 245 244 245 246 248 251 254 260 268 274 280 284 285 286 288 292 294 289 280 272 274 279 263 225 214 204 197 199 198 196 209 221 211 204 206 209 207 207 210 213 216 219 223 229 235 241 246 250
238 238 238 238 238 237 236 232 232 233 233 232 234 235 235 237 238 239 241 241 239 238 237 235 232 232 238 251 260 259 254 252 249 248 251 252 250 248 246 247 249 250 253 256 260 266 271 276 280 282 283 287 291 290 281 270 264 267 275 253 208 196 193 191 196 198 196 204 214 213 210 211 211 211 210 213 216 220 225 229 233 236 240 243 245
237 237 236 235 234 236 238 236 232 231 230 229 232 234 234 235 234 234 237 237 235 236 238 238 236 234 232 241 254 258 257 256 252 249 251 253 253 252 250 249 251 253 255 258 261 265 269 273 277 279 282 287 289 282 269 260 258 262 268 241 199 190 193 194 197 199 199 205 211 210 212 213 214 215 215 217 220 225 229 233 237 239 242 245 245
236 236 235 233 233 235 239 240 236 232 230 229 230 232 234 237 237 236 237 237 235 232 233 236 237 237 234 235 242 248 250 251 250 250 253 253 254 256 255 253 253 255 257 259 261 265 268 272 276 278 282 286 283 270 257 251 252 255 252 228 200 194 198 200 200 202 204 208 211 213 214 214 215 216 218 220 223 226 230 235 240 244 248 251 249
234 234 233 234 234 234 236 238 237 233 232 232 233 235 235 236 237 238 237 238 239 238 236 239 241 241 240 239 241 245 247 249 250 251 255 255 255 259 259 257 255 256 258 259 260 263 266 270 275 278 282 282 272 258 248 244 247 248 236 220 207 201 203 204 203 205 209 211 212 217 220 221 221 222 223 226 230 235 237 241 246 247 247 250 249
232 231 231 232 234 234 234 234 232 230 231 233 237 240 240 237 236 237 235 235 241 245 246 247 247 246 245 245 246 246 246 249 250 251 255 258 258 258 259 258 257 257 258 259 259 261 263 268 273 277 279 274 259 248 242 238 240 237 224 217 213 210 209 209 208 209 212 214 216 219 224 228 231 233 236 240 242 244 245 246 249 249 246 245 246
232 229 228 229 231 232 232 232 230 227 228 232 236 239 242 241 238 236 233 232 238 245 250 253 253 253 251 249 250 252 250 250 249 250 254 258 258 257 256 256 256 256 257 258 259 259 262 267 271 274 275 265 249 242 238 234 232 228 222 217 216 217 217 216 216 215 216 218 221 225 230 234 238 242 247 249 250 251 253 252 252 252 249 248 249
231 228 226 226 227 228 226 226 226 226 228 234 238 239 244 246 243 237 232 231 235 241 248 254 257 256 253 250 250 252 253 253 252 251 253 256 258 258 257 255 254 254 255 257 259 259 261 266 269 272 270 258 245 239 234 230 227 223 222 222 221 222 223 223 223 223 224 226 228 233 237 240 243 247 250 255 259 261 260 257 255 255 253 252 255
231 229 227 226 226 227 225 223 221 223 228 236 243 246 248 248 247 243 236 233 235 240 246 252 255 255 253 251 250 251 253 255 254 254 254 256 258 258 258 255 253 253 254 256 257 258 261 265 267 270 266 252 241 236 231 228 226 223 223 225 226 227 228 228 228 228 230 233 236 240 244 247 249 252 256 264 267 266 266 266 264 261 258 257 258
232 230 228 228 228 228 227 224 221 223 229 238 246 252 251 246 244 243 238 233 232 237 243 250 251 250 250 250 252 253 255 255 255 255 255 257 260 259 258 256 253 253 253 254 256 257 260 264 267 267 263 250 240 236 231 228 226 225 225 226 228 230 233 234 234 232 233 235 239 244 248 251 255 258 260 262 265 268 271 273 272 268 265 263 259
234 230 229 229 228 227 226 224 223 225 231 238 243 249 249 243 238 237 235 232 232 234 240 246 248 249 251 252 254 257 260 260 259 257 258 261 261 260 258 255 251 251 252 252 254 256 259 263 265 265 259 249 241 236 233 231 229 230 230 229 230 233 236 238 240 240 240 241 244 249 252 255 259 261 260 260 264 269 271 271 270 269 266 261 255
234 230 228 229 229 228 228 229 227 227 231 236 238 241 243 239 234 234 234 234 233 232 233 240 246 250 253 254 257 261 266 270 267 264 265 267 264 262 260 254 247 246 249 249 251 253 257 263 264 262 257 247 240 237 235 232 230 231 232 232 234 236 237 239 241 243 245 247 249 252 255 257 259 259 257 257 259 261 262 259 257 255 254 253 249
234 230 229 228 227 227 230 232 229 226 227 231 233 236 238 236 234 235 234 233 231 228 225 231 242 252 256 258 261 266 272 277 277 274 271 268 266 264 260 254 249 249 249 247 248 250 255 261 263 262 258 248 240 237 236 233 231 232 233 234 236 239 239 240 242 244 247 249 252 254 256 257 258 256 255 254 251 248 247 246 243 244 246 247 245
234 230 229 228 226 224 228 230 228 226 226 228 230 233 234 233 231 229 227 228 231 232 229 227 235 249 260 262 264 270 275 278 281 280 275 270 266 263 261 259 258 255 250 245 245 246 249 256 260 260 257 250 241 237 236 235 235 235 236 237 239 240 240 240 243 245 247 249 251 252 254 255 256 256 255 252 245 240 238 239 237 239 242 244 244
230 227 225 225 224 220 221 223 223 225 225 224 226 229 229 228 225 223 224 227 232 239 240 234 234 246 262 267 269 272 275 275 278 279 278 275 266 260 261 264 262 257 252 248 245 243 243 249 254 257 257 251 241 236 237 238 239 240 241 242 243 243 242 243 246 248 248 249 249 250 252 254 255 256 254 248 242 238 237 237 237 238 240 241 243
223 221 221 222 222 219 218 218 219 219 219 220 225 228 226 224 222 223 226 228 231 239 245 245 244 250 261 268 271 273 274 273 274 277 280 278 268 258 258 263 261 258 256 253 248 243 240 242 248 256 259 253 244 239 239 241 244 245 244 245 245 245 246 248 250 252 250 250 250 251 253 253 252 251 249 244 241 239 238 237 238 239 240 240 241
215 216 218 218 217 216 215 216 216 216 215 218 223 224 221 220 221 223 226 230 235 240 245 249 251 252 257 264 268 272 274 273 273 276 279 278 270 261 259 261 261 258 258 257 253 245 240 243 253 260 262 256 248 245 244 245 249 251 250 250 249 248 247 248 249 250 250 249 250 251 251 250 249 247 245 243 241 239 238 239 240 241 242 241 240
211 212 214 211 208 209 211 213 215 216 216 216 217 217 217 218 220 222 226 231 237 241 244 248 251 253 257 262 266 269 272 272 273 275 276 276 272 266 264 266 264 260 258 259 256 245 238 244 254 258 260 259 252 249 250 250 252 255 256 257 255 249 246 246 245 245 246 247 248 249 249 248 247 246 245 244 243 242 241 241 242 243 244 243 241
207 208 211 209 203 200 201 204 207 211 212 211 210 210 211 212 215 219 223 228 232 237 242 247 252 255 258 261 264 267 269 271 272 273 274 275 273 270 270 271 268 264 261 260 259 250 240 242 253 257 256 256 252 250 253 254 254 258 260 260 257 252 247 245 243 243 244 246 248 248 248 247 247 246 246 246 246 246 247 246 246 244 244 243 241
206 208 210 209 204 200 198 198 199 200 201 201 202 203 205 209 215 219 223 227 231 235 239 245 251 254 257 259 260 260 263 266 269 270 272 273 273 272 272 270 267 266 264 262 264 259 245 240 249 255 252 251 250 250 254 256 257 260 262 259 256 251 247 244 242 242 244 246 248 249 248 247 247 248 248 248 247 247 247 246 244 241 240 240 239
205 207 208 207 206 203 199 196 194 194 194 195 200 205 210 214 218 222 226 229 233 237 241 246 253 257 259 260 259 257 257 260 262 264 266 269 270 271 270 267 264 264 263 261 263 264 255 245 243 245 246 245 243 245 249 254 257 260 261 258 253 248 246 244 242 243 245 247 249 250 250 249 248 248 247 246 244 244 243 241 238 236 235 235 235
203 205 205 204 201 198 194 191 190 192 196 201 208 214 217 219 221 224 228 232 237 243 248 253 258 262 264 265 264 263 263 264 262 260 259 262 264 266 266 264 262 262 263 261 260 263 261 250 240 237 237 236 235 239 247 252 255 258 258 254 249 246 244 243 242 243 245 247 249 251 251 248 246 244 242 241 240 241 240 237 234 231 231 233 234
193 193 194 194 194 193 194 194 195 198 201 207 212 215 216 219 223 225 229 234 240 247 253 257 262 265 267 269 269 267 267 269 268 265 261 260 260 261 261 261 258 257 259 259 258 259 260 254 245 238 234 235 236 239 244 248 249 252 254 253 249 245 244 244 244 244 246 247 248 249 247 243 240 239 238 238 238 239 237 234 230 228 228 231 234
186 188 190 192 194 195 197 197 198 199 202 207 213 216 218 222 226 230 233 239 244 250 257 261 264 268 271 273 272 268 265 265 264 262 262 263 264 263 262 260 258 255 256 257 255 255 256 255 249 239 233 234 238 237 239 241 243 246 250 251 249 245 243 243 243 242 242 243 243 242 239 236 236 236 236 236 237 238 236 233 229 226 225 228 231
188 191 192 193 194 195 195 196 198 200 204 209 214 220 226 230 234 237 239 242 246 253 260 264 266 269 272 274 272 267 264 262 260 259 261 267 270 269 268 266 263 261 263 260 254 251 251 252 249 242 235 234 237 238 239 241 242 243 246 247 245 243 242 242 241 240 239 239 239 238 236 235 233 232 233 234 236 238 237 234 231 227 225 227 230
190 192 192 193 194 196 197 200 203 206 209 213 218 224 229 233 237 239 241 244 249 257 265 269 269 270 270 271 271 269 266 265 265 263 263 267 271 273 274 275 272 270 269 262 252 248 248 249 249 247 243 240 240 242 242 244 244 244 244 244 242 240 240 241 241 240 238 239 240 239 238 236 234 232 231 232 234 236 237 236 234 231 230 231 232
195 195 196 198 200 202 205 208 211 214 217 221 225 229 231 234 237 239 242 246 251 258 264 268 270 270 270 271 272 273 270 266 265 264 263 264 268 271 275 279 277 273 271 263 254 248 247 246 245 246 245 244 244 245 246 247 246 245 244 243 241 240 240 241 241 239 237 237 238 239 239 238 237 236 234 232 233 236 237 236 236 234 234 234 235
208 207 207 208 209 211 214 215 217 219 222 224 227 230 232 235 239 242 245 248 252 257 261 265 267 269 271 271 272 273 271 265 261 263 264 266 268 271 275 278 276 271 268 262 256 251 249 248 247 246 246 244 244 245 247 247 246 244 243 242 241 241 241 242 242 239 237 236 237 238 240 240 241 241 239 234 232 234 236 237 237 237 236 236 236
217 219 220 222 223 224 225 225 225 226 228 230 233 234 237 240 242 245 249 253 256 259 261 265 267 267 267 267 269 273 274 269 265 268 271 270 271 273 274 274 270 265 262 258 254 252 251 250 250 250 249 247 245 245 246 246 245 243 243 243 244 244 244 244 242 239 236 235 236 239 242 243 245 247 244 237 232 233 236 237 237 237 236 235 234
219 222 225 227 230 233 234 236 238 239 240 242 243 244 245 246 248 250 253 256 259 260 262 267 269 266 262 262 267 274 277 273 270 273 275 274 275 276 275 270 265 263 262 259 255 253 253 253 252 251 250 248 246 245 245 246 245 243 242 244 246 246 244 242 240 237 235 234 235 238 241 244 247 249 248 241 234 232 235 236 235 235 234 232 231
226 228 230 231 234 236 237 239 241 242 244 245 247 249 251 251 253 254 255 258 261 262 264 268 268 262 257 259 265 271 274 273 272 274 276 276 275 273 270 266 262 262 263 260 255 253 253 253 254 254 253 251 249 247 246 247 247 245 243 244 245 245 243 241 239 237 234 232 234 238 242 246 249 251 251 244 236 233 234 234 232 232 233 231 230
239 239 239 241 242 242 243 244 245 245 245 245 245 248 250 253 255 257 258 259 261 263 266 268 263 255 252 256 262 268 270 271 273 277 278 276 271 266 262 261 261 262 263 262 258 255 254 255 255 256 255 253 251 249 247 248 249 248 245 245 248 248 246 243 240 237 233 231 234 238 242 246 249 251 250 246 238 235 236 236 233 232 232 231 229
244 244 244 245 246 247 248 249 249 250 250 249 248 247 248 250 252 254 255 256 258 263 266 262 253 248 249 252 257 263 267 270 273 275 273 268 262 258 258 259 260 260 262 262 260 257 257 258 259 258 256 255 254 252 250 251 252 251 247 247 250 251 248 245 242 238 233 232 234 238 242 246 249 250 248 245 239 235 235 236 233 231 231 230 228
244 242 242 242 243 244 246 247 248 248 249 249 249 248 248 249 250 250 251 254 258 262 260 253 246 246 250 252 256 262 268 272 273 270 265 259 255 253 253 254 256 258 259 260 261 260 260 262 262 260 257 255 255 255 254 254 255 252 248 247 250 251 248 245 242 237 233 232 234 238 241 246 248 246 244 242 240 236 235 234 232 230 228 227 226
244 244 243 241 239 240 241 243 244 245 245 246 247 248 249 250 250 249 250 253 255 256 254 250 250 254 256 257 260 263 267 271 272 269 264 260 257 254 251 250 253 255 255 257 261 262 262 263 264 261 258 256 255 256 257 257 257 253 248 247 251 251 246 242 239 235 232 232 233 236 240 244 246 243 239 236 235 234 235 235 233 231 230 229 228
186 224 231 231 231 234 238 240 242 243 244 245 246 247 249 250 250 251 252 253 253 252 253 254 257 260 263 266 267 269 271 275 276 274 270 265 261 257 253 251 253 255 256 260 264 263 261 262 262 260 259 257 257 258 258 258 257 252 247 246 250 251 246 242 239 236 233 232 233 235 239 242 242 238 232 228 226 228 232 235 234 234 234 235 233
89 103 137 175 192 203 213 222 228 232 235 236 237 239 241 243 245 247 247 246 245 246 248 251 254 259 265 269 271 272 274 275 275 273 269 266 264 261 257 255 255 255 257 260 262 261 261 262 262 260 259 259 259 259 258 256 254 251 246 244 248 249 246 243 240 237 235 233 233 235 238 238 234 230 226 221 218 221 227 231 232 233 235 235 233
75 79 84 89 97 110 121 129 145 173 193 201 205 208 210 211 215 219 222 225 228 233 238 245 250 255 259 261 263 265 266 266 267 266 264 264 264 263 260 258 256 256 257 258 259 260 261 262 261 260 258 258 259 258 254 252 252 249 245 243 246 248 246 243 240 237 235 234 233 234 234 231 226 222 217 212 212 215 219 222 224 225 225 226 227
69 72 75 77 78 80 81 82 84 90 98 109 120 131 142 151 157 164 172 180 190 202 214 227 237 244 249 255 259 260 258 258 260 260 259 261 263 263 261 259 257 257 259 259 260 261 262 263 263 262 260 258 258 255 252 251 251 250 247 246 247 248 248 245 242 239 235 233 232 231 226 219 213 208 202 199 204 209 213 214 215 215 216 218 222
65 67 69 72 73 74 73 73 73 74 76 78 82 86 90 96 101 106 111 113 114 115 113 110 108 123 280 281 275 266 260 260 261 262 265 268 267 265 263 261 261 264 264 262 261 261 260 260 261 262 261 259 256 253 251 250 250 250 249 248 248 249 249 247 245 242 238 234 230 224 213 204 201 201 199 201 205 208 209 210 210 209 211 214 218
59 61 63 65 66 67 68 69 70 71 70 69 70 71 72 74 77 79 81 83 83 82 81 79 75 71 65 52 35 15 345 301 288 284 283 280 274 269 265 265 269 274 274 270 267 265 262 261 263 266 265 263 260 258 256 256 256 255 255 253 254 255 255 255 253 248 241 235 228 214 201 196 197 200 203 207 210 212 214 215 213 212 214 218 222
55 57 58 60 61 62 63 64 66 67 66 65 63 63 62 64 66 70 74 78 80 80 79 78 76 74 72 69 64 60 55 33 333 305 291 281 273 268 264 261 262 265 268 267 265 263 263 264 266 269 269 269 268 267 268 268 267 267 266 264 263 263 262 259 254 244 236 230 219 204 198 199 199 199 205 210 213 217 219 219 218 217 218 221 224
52 54 56 57 58 59 60 60 61 62 63 64 64 64 64 64 65 67 70 74 77 77 76 75 73 71 69 67 66 64 60 53 44 39 49 225 234 240 244 245 245 245 247 248 248 249 251 253 256 260 264 267 269 270 270 269 269 270 270 269 268 265 260 252 241 228 223 218 208 201 204 205 200 200 207 212 215 219 221 221 221 222 222 224 226
50 52 54 55 55 56 55 55 55 56 57 59 61 63 65 66 66 66 66 67 68 68 67 68 69 68 65 63 61 60 58 55 51 47 50 64 101 146 165 183 201 210 215 219 223 228 233 237 244 251 256 259 262 264 264 263 264 266 268 266 264 259 250 239 225 213 206 201 197 201 207 208 206 208 211 211 213 219 222 224 226 227 227 227 227
48 50 51 52 52 53 53 52 52 53 53 53 54 56 57 60 62 63 63 62 61 59 58 59 61 62 61 59 57 55 54 53 52 52 57 73 89 93 89 83 83 94 114 130 138 153 190 214 227 235 237 240 246 250 251 253 257 260 260 258 251 241 231 222 211 198 190 189 195 205 212 214 216 217 214 211 215 222 227 229 231 231 231 231 230
46 47 48 49 50 50 50 50 50 50 50 50 51 51 52 54 56 58 60 60 59 57 56 55 56 56 56 55 55 55 55 56 58 62 71 84 92 90 84 78 75 76 79 83 88 91 96 106 119 127 131 133 144 171 201 234 244 244 245 241 228 213 203 196 187 181 180 188 201 212 216 216 215 213 211 212 218 225 230 233 233 233 233 234 232
45 45 46 46 47 48 47 47 47 47 47 48 48 48 49 51 52 53 55 56 55 54 54 53 53 53 53 53 55 57 59 62 65 69 75 83 87 87 85 80 76 76 78 81 84 86 89 92 95 98 99 100 101 102 102 101 105 119 139 156 164 168 170 171 173 176 183 194 205 211 212 211 209 208 210 216 222 228 234 237 237 236 236 234 230
Height
1471 1474 1477 1480 1483 1486 1489 1491 1493 1495 1497 1499 1501 1503 1505 1507 1508 1510 1513 1515 1518 1520 1522 1524 1525 1526 1527 1528 1529 1530 1531 1532 1533 1534 1535 1536 1538 1539 1541 1542 1543 1544 1546 1547 1548 1549 1549 1550 1550 1550 1550 1550 1549 1549 1549 1549 1548 1548 1548 1548 1548 1549 1549 1550 1551 1552 1553 1554 1555 1556 1558 1560 1562 1563 1565 1566 1567 1568 1570 1570 1571 1572 1572 1573 1574
1467 1470 1473 1476 1479 1482 1485 1488 1489 1491 1494 1496 1498 1500 1502 1503 1505 1507 1509 1511 1514 1517 1519 1521 1523 1524 1525 1526 1527 1528 1529 1530 1532 1532 1533 1534 1535 1537 1538 1539 1541 1542 1543 1544 1545 1546 1547 1547 1548 1548 1548 1548 1547 1547 1547 1547 1546 1545 1545 1546 1546 1547 1548 1549 1550 1551 1552 1553 1554 1555 1557 1559 1561 1562 1563 1565 1566 1568 1569 1569 1570 1571 1572 1573 1573
1463 1465 1469 1471 1475 1479 1481 1484 1486 1487 1490 1492 1494 1496 1499 1501 1502 1504 1507 1509 1511 1514 1517 1519 1521 1522 1523 1524 1525 1526 1527 1528 1529 1530 1531 1532 1533 1535 1536 1537 1538 1539 1541 1542 1543 1544 1544 1545 1545 1546 1546 1546 1545 1545 1545 1544 1544 1543 1543 1543 1544 1545 1546 1547 1548 1549 1551 1552 1553 1555 1556 1558 1559 1561 1563 1564 1566 1567 1568 1569 1569 1570 1571 1571 1572
1459 1461 1464 1467 1471 1474 1476 1479 1481 1483 1486 1489 1491 1493 1495 1497 1499 1501 1504 1506 1509 1512 1514 1516 1518 1519 1521 1522 1523 1524 1525 1526 1527 1528 1529 1530 1531 1532 1534 1534 1536 1537 1538 1539 1541 1541 1542 1542 1543 1544 1544 1543 1543 1542 1542 1542 1541 1541 1541 1541 1541 1542 1544 1545 1547 1548 1550 1551 1552 1554 1555 1557 1559 1560 1562 1563 1564 1566 1567 1567 1568 1568 1569 1570 1571
1454 1456 1459 1462 1466 1469 1472 1474 1476 1479 1483 1486 1488 1490 1492 1494 1496 1498 1500 1503 1506 1508 1511 1513 1515 1516 1517 1519 1520 1521 1523 1524 1525 1526 1527 1528 1529 1530 1531 1532 1533 1534 1536 1537 1538 1539 1540 1540 1541 1541 1541 1541 1541 1540 1540 1540 1540 1539 1539 1539 1540 1541 1542 1544 1546 1547 1549 1550 1552 1553 1555 1556 1558 1559 1560 1562 1563 1564 1565 1565 1566 1567 1568 1568 1569
1451 1452 1454 1457 1461 1465 1467 1469 1471 1474 1478 1482 1484 1487 1489 1491 1493 1496 1498 1500 1503 1505 1508 1510 1511 1513 1514 1516 1517 1518 1520 1521 1522 1523 1525 1527 1528 1529 1529 1530 1531 1532 1533 1534 1535 1536 1537 1538 1538 1539 1539 1539 1538 1538 1538 1538 1538 1538 1537 1538 1539 1540 1541 1543 1545 1546 1548 1549 1551 1552 1554 1555 1556 1558 1559 1560 1562 1563 1563 1564 1564 1565 1565 1566 1567
1447 1448 1450 1453 1457 1460 1462 1464 1466 1469 1473 1477 1480 1483 1485 1488 1491 1494 1496 1498 1500 1502 1505 1507 1509 1510 1511 1514 1516 1517 1518 1518 1519 1520 1522 1524 1525 1526 1527 1528 1529 1530 1531 1532 1533 1534 1534 1535 1536 1536 1536 1536 1536 1535 1536 1536 1536 1536 1536 1537 1538 1539 1540 1542 1543 1545 1546 1548 1549 1551 1552 1554 1555 1556 1558 1559 1560 1561 1561 1562 1562 1563 1563 1564 1564
1443 1444 1446 1449 1452 1455 1458 1460 1462 1465 1469 1472 1476 1479 1481 1484 1487 1491 1493 1495 1497 1500 1502 1504 1506 1507 1509 1511 1513 1513 1514 1515 1516 1517 1518 1520 1522 1524 1525 1526 1526 1527 1528 1529 1530 1531 1532 1532 1533 1533 1533 1533 1533 1533 1533 1534 1534 1534 1534 1535 1536 1538 1539 1541 1542 1544 1545 1546 1548 1549 1551 1552 1553 1555 1556 1557 1557 1558 1559 1559 1560 1561 1561 1562 1563
1438 1440 1442 1445 1447 1450 1454 1456 1459 1462 1466 1469 1472 1475 1478 1481 1484 1487 1489 1491 1493 1496 1499 1501 1502 1504 1506 1507 1509 1510 1511 1511 1513 1514 1515 1517 1519 1521 1522 1523 1524 1525 1525 1526 1527 1528 1529 1529 1530 1530 1531 1531 1531 1531 1531 1532 1532 1532 1533 1534 1535 1536 1538 1539 1540 1542 1543 1544 1546 1547 1549 1550 1551 1552 1553 1554 1555 1556 1557 1558 1558 1559 1560 1560 1561
1433 1435 1437 1440 1443 1447 1450 1452 1455 1458 1461 1465 1469 1472 1476 1478 1480 1483 1486 1488 1489 1491 1494 1497 1499 1501 1503 1504 1505 1506 1507 1508 1509 1511 1512 1514 1516 1517 1518 1520 1521 1522 1523 1524 1525 1525 1526 1527 1527 1528 1528 1528 1529 1529 1530 1530 1531 1531 1531 1532 1533 1535 1536 1537 1538 1540 1541 1542 1544 1545 1546 1547 1548 1550 1551 1552 1553 1554 1555 1556 1556 1557 1558 1558 1558
1429 1430 1432 1436 1440 1443 1445 1448 1450 1453 1457 1462 1466 1469 1472 1475 1477 1480 1483 1485 1487 1489 1490 1493 1495 1498 1499 1501 1502 1503 1504 1505 1506 1508 1509 1511 1513 1514 1515 1516 1517 1519 1520 1521 1522 1523 1524 1524 1525 1525 1526 1526 1526 1527 1528 1529 1529 1529 1530 1530 1532 1533 1534 1535 1536 1538 1539 1540 1541 1543 1543 1545 1546 1548 1549 1550 1551 1552 1553 1553 1554 1554 1555 1555 1555
1425 1426 1428 1432 1435 1438 1441 1444 1446 1448 1453 1459 1463 1467 1470 1472 1474 1476 1479 1482 1484 1486 1487 1489 1492 1494 1496 1497 1498 1499 1501 1502 1503 1505 1506 1508 1510 1511 1512 1513 1514 1516 1517 1518 1519 1520 1521 1522 1522 1523 1523 1524 1524 1525 1526 1527 1527 1527 1528 1529 1530 1531 1532 1533 1535 1536 1537 1538 1539 1540 1541 1542 1544 1545 1547 1548 1549 1549 1550 1550 1551 1551 1552 1552 1553
1420 1422 1424 1426 1429 1432 1436 1440 1441 1444 1450 1456 1461 1465 1468 1471 1472 1473 1475 1478 1480 1482 1484 1486 1488 1490 1492 1493 1494 1495 1497 1498 1500 1501 1503 1504 1506 1508 1509 1510 1511 1512 1514 1515 1517 1518 1519 1519 1520 1520 1521 1521 1522 1523 1524 1525 1525 1526 1526 1527 1528 1529 1530 1531 1532 1534 1535 1536 1537 1538 1539 1540 1542 1543 1545 1546 1546 1546 1547 1547 1548 1548 1549 1550 1550
1415 1418 1419 1422 1425 1428 1433 1435 1436 1439 1446 1453 1458 1464 1468 1469 1470 1471 1472 1474 1475 1477 1479 1482 1484 1486 1488 1489 1490 1491 1493 1494 1496 1497 1499 1501 1503 1504 1506 1507 1508 1509 1511 1513 1514 1515 1516 1516 1517 1517 1518 1519 1519 1521 1522 1523 1523 1524 1524 1525 1526 1527 1528 1529 1530 1531 1532 1533 1534 1535 1536 1538 1539 1541 1543 1543 1543 1543 1544 1544 1545 1545 1546 1547 1548
1410 1413 1415 1417 1420 1425 1430 1432 1432 1435 1442 1448 1455 1462 1467 1468 1468 1469 1470 1470 1471 1473 1475 1478 1480 1482 1484 1485 1486 1487 1488 1490 1492 1493 1495 1497 1499 1501 1502 1503 1504 1506 1508 1510 1512 1513 1513 1514 1514 1514 1515 1516 1517 1519 1520 1521 1521 1522 1522 1523 1524 1525 1526 1527 1528 1529 1530 1531 1532 1533 1534 1535 1537 1538 1540 1540 1540 1541 1541 1541 1542 1543 1543 1544 1545
1405 1408 1411 1413 1416 1420 1425 1427 1429 1434 1440 1445 1451 1458 1463 1464 1464 1466 1467 1468 1468 1469 1471 1473 1476 1478 1480 1482 1482 1483 1484 1486 1488 1490 1491 1493 1495 1497 1498 1499 1500 1503 1505 1507 1508 1509 1510 1511 1511 1511 1512 1513 1514 1516 1518 1518 1519 1519 1520 1521 1522 1522 1523 1525 1526 1527 1528 1528 1529 1530 1531 1532 1534 1535 1536 1536 1537 1538 1538 1538 1538 1539 1540 1540 1541
1400 1403 1406 1409 1412 1415 1419 1422 1427 1432 1438 1442 1447 1453 1457 1459 1460 1462 1463 1465 1466 1466 1467 1469 1472 1474 1476 1478 1479 1480 1482 1483 1485 1486 1488 1490 1492 1493 1494 1495 1498 1501 1503 1504 1505 1506 1507 1508 1508 1509 1509 1510 1512 1514 1515 1515 1516 1516 1517 1518 1519 1519 1520 1522 1523 1524 1525 1526 1527 1528 1528 1529 1530 1531 1532 1533 1534 1534 1534 1534 1534 1535 1536 1537 1538
1395 1398 1401 1405 1408 1412 1415 1419 1424 1429 1434 1439 1444 1448 1451 1454 1456 1458 1460 1461 1462 1464 1464 1464 1467 1470 1473 1475 1477 1478 1479 1481 1482 1483 1485 1487 1489 1490 1492 1494 1496 1498 1499 1500 1501 1502 1504 1505 1506 1506 1507 1508 1510 1511 1512 1512 1513 1513 1514 1515 1515 1516 1517 1519 1520 1520 1522 1522 1523 1524 1525 1526 1526 1527 1528 1529 1530 1530 1530 1530 1531 1532 1533 1533 1535
1391 1394 1397 1401 1405 1409 1412 1416 1420 1425 1430 1436 1441 1445 1447 1450 1453 1455 1456 1458 1459 1461 1462 1461 1462 1465 1469 1472 1474 1476 1477 1478 1479 1480 1481 1483 1486 1487 1489 1493 1494 1494 1495 1497 1498 1499 1500 1501 1502 1504 1505 1506 1507 1508 1509 1509 1510 1510 1511 1512 1511 1512 1514 1516 1516 1517 1518 1519 1520 1521 1521 1522 1523 1523 1524 1525 1526 1526 1527 1528 1529 1529 1530 1531 1532
1388 1392 1395 1399 1402 1405 1409 1413 1417 1422 1427 1432 1437 1442 1444 1447 1450 1452 1453 1455 1456 1457 1458 1458 1459 1461 1465 1469 1471 1472 1473 1474 1475 1477 1478 1480 1482 1484 1486 1488 1489 1489 1491 1493 1495 1496 1496 1497 1499 1500 1502 1503 1504 1505 1506 1506 1507 1507 1508 1508 1508 1509 1512 1513 1513 1514 1515 1515 1516 1517 1517 1518 1519 1519 1520 1521 1522 1523 1524 1525 1526 1526 1527 1528 1529
1385 1389 1393 1396 1400 1403 1406 1410 1414 1419 1424 1428 1433 1438 1442 1445 1447 1448 1450 1451 1453 1454 1455 1456 1457 1459 1462 1466 1468 1469 1470 1470 1471 1473 1474 1476 1478 1480 1481 1483 1484 1485 1487 1489 1491 1492 1492 1494 1495 1496 1498 1500 1501 1502 1502 1503 1504 1504 1504 1505 1506 1507 1509 1509 1509 1510 1511 1511 1512 1512 1513 1514 1515 1515 1516 1517 1518 1520 1521 1522 1522 1523 1524 1525 1526
1383 1387 1391 1395 1398 1401 1405 1408 1412 1417 1421 1426 1430 1435 1439 1441 1443 1444 1446 1447 1449 1451 1452 1454 1455 1456 1459 1462 1464 1465 1467 1467 1468 1469 1470 1472 1473 1475 1477 1479 1481 1482 1484 1485 1485 1486 1488 1490 1491 1492 1494 1496 1497 1498 1499 1500 1500 1500 1501 1503 1504 1504 1505 1505 1506 1506 1506 1507 1507 1508 1509 1510 1511 1511 1512 1513 1515 1516 1517 1518 1519 1520 1521 1522 1523
1380 1385 1389 1393 1397 1400 1403 1407 1411 1415 1420 1424 1428 1432 1435 1437 1439 1440 1442 1444 1446 1447 1449 1451 1452 1454 1455 1458 1460 1461 1463 1463 1464 1465 1467 1468 1469 1470 1472 1475 1477 1479 1480 1480 1481 1482 1484 1485 1487 1488 1490 1491 1493 1494 1496 1497 1497 1497 1499 1500 1500 1501 1501 1502 1502 1502 1503 1503 1503 1504 1505 1506 1506 1507 1508 1510 1511 1512 1514 1515 1516 1517 1518 1519 1520
1378 1383 1387 1392 1396 1399 1403 1406 1410 1414 1418 1422 1425 1428 1431 1433 1435 1437 1439 1441 1443 1444 1446 1448 1449 1450 1451 1453 1455 1457 1458 1459 1460 1461 1462 1464 1465 1466 1468 1471 1473 1474 1475 1476 1477 1478 1479 1480 1482 1483 1485 1487 1489 1491 1492 1493 1494 1494 1496 1497 1497 1497 1497 1498 1498 1499 1499 1499 1500 1500 1501 1502 1503 1504 1505 1506 1508 1509 1510 1511 1512 1513 1514 1515 1517
1377 1381 1386 1391 1395 1399 1402 1405 1409 1412 1415 1419 1422 1424 1427 1429 1431 1433 1436 1438 1440 1441 1442 1444 1444 1445 1447 1448 1450 1451 1453 1454 1455 1456 1457 1459 1460 1462 1464 1466 1468 1469 1470 1471 1472 1473 1474 1476 1477 1478 1480 1482 1484 1486 1488 1489 1490 1492 1493 1494 1493 1493 1494 1494 1495 1495 1495 1495 1496 1498 1499 1500 1501 1501 1502 1503 1504 1505 1506 1507 1508 1509 1510 1511 1513
1375 1380 1385 1389 1393 1397 1400 1404 1407 1410 1413 1416 1419 1421 1424 1426 1428 1431 1433 1435 1436 1437 1438 1439 1440 1441 1443 1444 1445 1446 1448 1449 1451 1451 1452 1453 1454 1456 1458 1460 1463 1464 1464 1466 1467 1468 1469 1470 1470 1472 1475 1477 1479 1481 1483 1485 1486 1488 1489 1489 1489 1489 1490 1491 1491 1491 1491 1492 1494 1495 1497 1498 1498 1498 1498 1499 1500 1501 1502 1503 1504 1505 1506 1508 1509
1375 1379 1383 1387 1391 1395 1398 1402 1405 1408 1411 1414 1416 1419 1421 1423 1426 1428 1429 1431 1432 1433 1434 1435 1436 1438 1439 1440 1441 1442 1443 1445 1446 1447 1448 1448 1449 1450 1452 1454 1456 1458 1459 1461 1462 1462 1463 1464 1465 1468 1472 1474 1475 1476 1478 1479 1481 1482 1483 1484 1485 1485 1486 1487 1488 1488 1488 1490 1491 1493 1494 1494 1494 1494 1495 1496 1497 1498 1499 1500 1501 1502 1503 1505 1506
1375 1379 1382 1386 1389 1393 1396 1399 1402 1405 1407 1410 1413 1415 1418 1420 1422 1424 1426 1428 1429 1430 1431 1432 1433 1434 1436 1436 1437 1438 1438 1439 1440 1442 1443 1444 1445 1446 1446 1447 1449 1451 1453 1454 1455 1457 1458 1459 1460 1463 1467 1469 1470 1471 1472 1472 1473 1475 1477 1479 1480 1482 1483 1484 1484 1484 1485 1486 1488 1489 1489 1490 1491 1491 1492 1493 1493 1494 1495 1496 1497 1498 1500 1502 1503
1375 1378 1382 1385 1388 1391 1394 1397 1399 1402 1404 1407 1409 1412 1414 1416 1418 1420 1422 1424 1425 1426 1427 1428 1430 1431 1432 1433 1433 1434 1433 1433 1434 1436 1438 1439 1440 1441 1441 1442 1443 1445 1447 1448 1449 1452 1454 1455 1455 1457 1461 1464 1465 1465 1465 1465 1466 1468 1470 1472 1475 1477 1478 1479 1479 1480 1481 1483 1484 1485 1485 1486 1487 1488 1489 1489 1490 1491 1492 1493 1494 1495 1497 1498 1500
1375 1378 1381 1384 1387 1390 1392 1395 1397 1399 1401 1404 1406 1409 1411 1413 1415 1416 1418 1420 1421 1423 1424 1425 1427 1428 1428 1428 1429 1429 1429 1429 1430 1431 1432 1434 1435 1436 1436 1437 1438 1440 1442 1443 1444 1448 1451 1451 1450 1452 1455 1457 1458 1458 1459 1459 1460 1461 1463 1466 1468 1470 1472 1474 1475 1476 1478 1479 1480 1481 1482 1483 1484 1484 1485 1486 1487 1488 1489 1490 1491 1492 1493 1495 1496
1375 1378 1380 1383 1385 1387 1390 1392 1394 1396 1398 1400 1402 1405 1407 1409 1410 1412 1414 1416 1417 1419 1420 1421 1423 1424 1424 1424 1425 1425 1425 1426 1426 1426 1427 1428 1430 1431 1432 1434 1434 1436 1439 1440 1441 1444 1446 1446 1446 1446 1448 1449 1450 1451 1453 1454 1454 1456 1458 1460 1462 1464 1466 1468 1470 1472 1474 1475 1476 1477 1478 1479 1480 1481 1482 1484 1485 1485 1486 1487 1488 1489 1490 1491 1493
1375 1377 1379 1381 1383 1385 1387 1389 1391 1393 1395 1397 1399 1401 1402 1404 1406 1408 1409 1411 1413 1414 1416 1417 1418 1419 1420 1421 1421 1421 1421 1421 1421 1421 1423 1424 1425 1427 1429 1431 1432 1434 1436 1437 1438 1440 1441 1440 1440 1441 1441 1442 1444 1446 1447 1448 1450 1452 1454 1455 1457 1458 1460 1463 1466 1468 1469 1470 1472 1473 1475 1476 1477 1478 1479 1481 1482 1483 1483 1484 1485 1486 1487 1488 1490
1374 1376 1378 1379 1381 1383 1384 1386 1388 1390 1391 1393 1395 1397 1398 1400 1402 1403 1405 1406 1408 1409 1411 1412 1414 1414 1415 1416 1416 1416 1416 1416 1417 1418 1419 1420 1421 1423 1425 1427 1428 1430 1432 1433 1434 1434 1435 1434 1434 1435 1435 1436 1438 1440 1442 1443 1445 1447 1449 1451 1452 1453 1455 1458 1461 1463 1464 1466 1468 1470 1471 1472 1474 1475 1476 1478 1479 1480 1480 1481 1482 1483 1484 1485 1486
1371 1373 1375 1377 1378 1380 1381 1383 1385 1386 1388 1390 1392 1393 1395 1396 1398 1399 1401 1401 1403 1404 1406 1407 1409 1409 1410 1410 1411 1411 1411 1411 1412 1413 1414 1416 1418 1419 1421 1423 1424 1425 1427 1428 1428 1429 1429 1429 1429 1429 1429 1430 1433 1435 1437 1438 1441 1443 1445 1447 1448 1450 1452 1454 1456 1457 1460 1462 1464 1466 1468 1469 1470 1471 1473 1474 1475 1476 1477 1478 1478 1479 1480 1481 1483
1368 1369 1371 1373 1374 1376 1377 1379 1381 1383 1384 1386 1388 1389 1391 1393 1394 1395 1396 1397 1398 1399 1400 1402 1404 1404 1404 1405 1406 1406 1406 1406 1407 1408 1409 1412 1414 1415 1416 1418 1419 1420 1421 1422 1423 1423 1424 1424 1424 1424 1425 1426 1428 1430 1432 1434 1436 1438 1440 1441 1443 1445 1447 1448 1450 1452 1455 1457 1459 1462 1464 1465 1467 1468 1469 1470 1471 1472 1473 1474 1474 1475 1476 1478 1480
1363 1364 1366 1368 1370 1371 1373 1375 1377 1378 1380 1381 1383 1385 1387 1388 1389 1390 1391 1392 1393 1394 1395 1397 1398 1399 1398 1399 1400 1400 1400 1401 1401 1403 1405 1407 1409 1411 1412 1413 1413 1414 1415 1417 1418 1419 1419 1420 1420 1421 1422 1423 1424 1426 1427 1429 1432 1434 1434 1435 1437 1439 1441 1443 1445 1447 1449 1452 1454 1457 1459 1460 1462 1464 1465 1466 1467 1468 1470 1471 1472 1472 1473 1475 1476
1358 1360 1361 1363 1365 1367 1369 1371 1372 1374 1376 1377 1379 1380 1381 1383 1384 1385 1386 1387 1388 1388 1390 1391 1391 1391 1392 1393 1394 1394 1394 1395 1397 1398 1400 1402 1404 1405 1406 1407 1408 1410 1412 1413 1414 1415 1415 1416 1417 1418 1418 1419 1420 1421 1423 1425 1427 1429 1430 1431 1433 1434 1436 1438 1441 1442 1445 1447 1449 1451 1453 1455 1457 1458 1460 1462 1464 1465 1467 1468 1469 1470 1470 1471 1473
1353 1355 1357 1359 1361 1363 1364 1366 1368 1369 1371 1372 1374 1375 1376 1377 1379 1380 1381 1382 1382 1383 1384 1384 1384 1385 1386 1386 1387 1388 1389 1390 1391 1393 1395 1396 1398 1398 1400 1402 1404 1406 1408 1410 1410 1411 1412 1412 1413 1413 1413 1414 1415 1416 1418 1420 1422 1424 1426 1427 1429 1430 1431 1434 1436 1437 1439 1441 1443 1445 1447 1449 1451 1452 1453 1456 1459 1461 1463 1465 1466 1467 1468 1468 1469
1350 1352 1353 1355 1356 1358 1360 1361 1363 1364 1366 1367 1368 1370 1371 1372 1374 1375 1376 1377 1377 1378 1379 1379 1380 1381 1381 1381 1381 1383 1384 1384 1385 1387 1388 1390 1391 1393 1395 1398 1400 1401 1403 1405 1406 1406 1407 1407 1407 1407 1408 1409 1409 1411 1413 1415 1417 1419 1421 1424 1425 1426 1427 1428 1430 1432 1434 1436 1438 1439 1441 1443 1445 1446 1447 1449 1452 1456 1459 1462 1463 1464 1464 1465 1466
1349 1349 1350 1351 1353 1354 1356 1357 1359 1360 1361 1362 1364 1365 1366 1368 1369 1370 1371 1372 1373 1373 1374 1375 1376 1377 1377 1376 1376 1377 1379 1380 1381 1382 1383 1384 1386 1388 1390 1392 1394 1396 1399 1400 1400 1400 1401 1402 1402 1402 1403 1403 1404 1405 1407 1408 1410 1413 1417 1420 1421 1422 1422 1423 1425 1427 1429 1431 1432 1434 1436 1437 1439 1440 1442 1443 1447 1451 1454 1457 1459 1461 1461 1462 1463
1349 1349 1349 1350 1351 1352 1353 1355 1356 1357 1358 1359 1360 1361 1363 1364 1365 1366 1367 1368 1369 1370 1371 1371 1371 1372 1373 1373 1372 1374 1375 1376 1377 1378 1379 1380 1382 1384 1385 1386 1389 1391 1393 1394 1395 1395 1395 1396 1397 1398 1398 1399 1400 1401 1402 1403 1405 1407 1410 1414 1416 1417 1417 1418 1420 1422 1424 1425 1427 1429 1431 1432 1434 1436 1438 1440 1442 1445 1449 1452 1455 1457 1458 1459 1460
1352 1352 1352 1352 1353 1354 1354 1355 1356 1355 1355 1356 1357 1358 1359 1360 1361 1362 1363 1364 1365 1366 1367 1367 1368 1368 1369 1370 1370 1371 1373 1374 1374 1375 1376 1377 1379 1380 1381 1382 1384 1385 1387 1388 1390 1391 1391 1391 1391 1392 1393 1394 1396 1397 1398 1399 1400 1402 1404 1407 1409 1410 1411 1413 1415 1416 1418 1420 1422 1424 1426 1428 1430 1432 1435 1438 1440 1442 1445 1447 1450 1452 1453 1455 1456
1359 1357 1356 1355 1356 1357 1358 1359 1358 1357 1356 1356 1356 1357 1357 1357 1358 1359 1361 1362 1363 1363 1364 1365 1366 1366 1367 1368 1368 1369 1370 1371 1372 1373 1374 1375 1376 1377 1378 1379 1380 1381 1382 1384 1385 1386 1387 1387 1387 1388 1389 1390 1391 1393 1394 1395 1397 1398 1399 1401 1403 1404 1406 1407 1409 1411 1413 1415 1417 1420 1422 1425 1427 1429 1432 1435 1438 1441 1443 1445 1447 1448 1449 1451 1452
1365 1363 1361 1359 1360 1361 1361 1362 1361 1360 1360 1360 1360 1359 1358 1358 1358 1359 1360 1361 1362 1363 1363 1364 1365 1365 1366 1367 1367 1368 1369 1369 1370 1371 1371 1372 1373 1374 1375 1375 1376 1377 1378 1380 1381 1382 1383 1384 1384 1385 1386 1386 1387 1389 1390 1391 1392 1393 1394 1396 1397 1398 1400 1401 1404 1407 1411 1413 1414 1416 1419 1422 1425 1428 1430 1432 1436 1439 1441 1443 1444 1445 1446 1448 1449
1370 1368 1366 1365 1365 1365 1365 1364 1364 1364 1364 1364 1363 1362 1361 1361 1361 1361 1362 1362 1363 1363 1363 1364 1364 1365 1365 1366 1366 1367 1368 1368 1369 1369 1369 1370 1370 1371 1372 1372 1372 1373 1375 1377 1379 1380 1381 1382 1383 1383 1383 1384 1384 1385 1386 1387 1388 1389 1390 1391 1392 1393 1395 1398 1402 1406 1410 1411 1412 1415 1418 1421 1424 1426 1429 1431 1433 1436 1438 1440 1442 1443 1444 1445 1447
1375 1374 1372 1371 1370 1370 1369 1369 1369 1369 1368 1368 1367 1365 1365 1365 1365 1364 1364 1364 1364 1364 1365 1365 1366 1366 1366 1367 1367 1367 1368 1368 1368 1368 1368 1369 1369 1370 1370 1370 1370 1371 1373 1375 1376 1378 1379 1380 1381 1381 1382 1382 1382 1383 1384 1384 1385 1386 1386 1387 1388 1389 1391 1394 1398 1402 1405 1408 1410 1414 1417 1419 1421 1424 1426 1428 1431 1433 1436 1438 1439 1440 1442 1443 1444
1381 1380 1379 1377 1376 1376 1375 1375 1374 1373 1372 1371 1371 1370 1371 1371 1370 1369 1368 1368 1367 1367 1367 1367 1368 1369 1369 1370 1370 1370 1369 1369 1369 1369 1369 1369 1369 1369 1370 1370 1370 1371 1373 1374 1375 1376 1377 1378 1378 1379 1379 1379 1379 1379 1380 1381 1381 1382 1383 1384 1385 1386 1388 1390 1392 1395 1399 1403 1407 1410 1413 1416 1419 1421 1423 1425 1428 1431 1433 1435 1437 1438 1439 1441 1442
1387 1386 1384 1383 1382 1381 1380 1379 1378 1377 1377 1376 1375 1375 1375 1375 1374 1372 1371 1371 1370 1370 1370 1370 1371 1372 1372 1373 1372 1372 1372 1371 1371 1370 1370 1369 1370 1370 1371 1371 1372 1372 1373 1374 1374 1375 1375 1376 1376 1376 1376 1376 1376 1377 1377 1378 1378 1379 1380 1381 1382 1384 1385 1387 1390 1392 1396 1400 1404 1408 1411 1414 1416 1418 1420 1422 1425 1428 1430 1432 1434 1436 1437 1438 1440
1392 1390 1389 1388 1387 1386 1385 1384 1383 1382 1381 1380 1380 1379 1378 1377 1376 1375 1375 1374 1374 1374 1374 1374 1374 1374 1375 1375 1375 1375 1374 1373 1372 1371 1371 1371 1371 1372 1372 1373 1374 1374 1374 1374 1374 1374 1374 1374 1374 1374 1374 1374 1375 1375 1376 1376 1377 1378 1379 1380 1381 1382 1384 1386 1388 1391 1395 1399 1403 1407 1410 1412 1414 1416 1418 1420 1422 1425 1428 1430 1431 1433 1434 1435 1437
1396 1395 1393 1392 1391 1391 1390 1389 1388 1387 1386 1385 1384 1383 1382 1381 1380 1380 1379 1378 1378 1378 1377 1377 1377 1377 1377 1378 1378 1377 1377 1376 1375 1374 1374 1374 1374 1375 1375 1376 1376 1375 1375 1375 1375 1375 1375 1374 1374 1374 1374 1374 1374 1374 1375 1376 1377 1378 1379 1380 1381 1382 1384 1385 1388 1391 1395 1399 1402 1405 1408 1410 1411 1413 1415 1417 1420 1422 1424 1426 1428 1429 1431 1432 1433
1400 1399 1398 1397 1396 1395 1394 1392 1391 1390 1390 1388 1388 1387 1386 1385 1385 1384 1383 1383 1382 1381 1381 1381 1380 1380 1380 1380 1380 1380 1379 1379 1379 1378 1378 1378 1378 1378 1378 1378 1378 1377 1377 1376 1376 1375 1375 1375 1375 1375 1375 1375 1375 1375 1376 1377 1378 1379 1381 1382 1383 1384 1385 1387 1389 1391 1394 1397 1401 1404 1406 1408 1410 1412 1413 1415 1417 1419 1421 1423 1424 1426 1427 1428 1430